Location: Unspecified
(0.0000°N, 0.0000°E)
Time: 10:13:19
(UTC+01:00)

Cosmos 1515 Rocket - Visible Passes

Search period start: 24 January 2017 00:00
Search period end: 03 February 2017 00:00
Orbit: 607 x 630 km, 82.5° (Epoch: 23 January)

Date Brightness Start Highest point End Pass type
(mag) Time Alt. Az. Time Alt. Az. Time Alt. Az.
24 Jan 6.9 05:47:56 10° ESE 05:49:25 11° E 05:50:53 10° ENE visible
24 Jan 6.6 19:32:40 10° NW 19:35:34 17° W 19:38:29 10° SW visible
25 Jan 5.9 06:02:54 10° SSE 06:06:34 26° E 06:10:13 10° NE visible
26 Jan 4.2 06:19:23 10° S 06:23:42 60° E 06:28:02 10° NNE visible
27 Jan 3.6 06:36:32 10° SSW 06:40:50 56° W 06:45:09 10° N visible
28 Jan 6.8 05:18:38 10° ESE 05:20:25 12° E 05:22:13 10° ENE visible
29 Jan 5.7 05:33:50 10° SSE 05:37:34 27° E 05:41:18 10° NE visible
30 Jan 4.0 05:50:21 10° S 05:54:42 64° E 05:59:04 10° NNE visible
31 Jan 3.6 06:07:33 10° SSW 06:11:51 53° W 06:16:09 10° N visible
01 Feb 6.6 04:49:24 10° ESE 04:51:26 13° E 04:53:28 10° ENE visible
01 Feb 4.7 06:25:28 10° SW 06:28:59 23° W 06:32:31 10° NNW visible
02 Feb 5.4 05:04:45 10° SSE 05:08:34 29° E 05:12:23 10° NNE visible
02 Feb 5.5 06:45:29 10° W 06:46:08 10° W 06:46:47 10° WNW visible
